Martinsville, VA

9:41 PM EDT on June 23, 2017 (GMT -0400)
Blue Ridge

Weather History for KMTV - September, 2014

Change the Weather History Date:

Tuesday, September 2, 2014

  Actual Average (KINT) Record (KINT)
Temperature  
Mean Temperature 78 °F -  
Max Temperature 92 °F 80 °F 97 °F (1993)
Min Temperature 64 °F 63 °F 47 °F (1967)
Cooling Degree Days 13    
Growing Degree Days 28 (Base 50)    
Moisture  
Dew Point 70 °F    
Average Humidity 81    
Maximum Humidity 100    
Minimum Humidity 46    
Precipitation  
Precipitation 0.00 in - - ()
Sea Level Pressure  
Sea Level Pressure 30.06 in    
Wind  
Wind Speed 1 mph (SW)    
Max Wind Speed 8 mph    
Max Gust Speed -    
Visibility 8 miles    
Events Rain , Thunderstorm    
Averages and records for this station are not official NWS values.
T = Trace of Precipitation, MM = Missing Value Source: NWS Daily Summary

Daily Weather History Graph

Daily Weather History Graph

Search for Another Location

Airport or City:

Trip Planner

Search our weather history database for the weather conditions in past years. The results will help you decide how hot, cold, wet, or windy it might be!

Date:

Astronomy

Sep. 02, 2014 Rise Set
Actual Time 6:52 AM EDT 7:46 PM EDT
Civil Twilight 6:25 AM EDT 8:13 PM EDT
Nautical Twilight 5:54 AM EDT 8:44 PM EDT
Astronomical Twilight 5:22 AM EDT 9:16 PM EDT
Moon 2:23 PM EDT (9/2) No Moon Set
Length of Visible Light 13h 47m
Length of Day
12h 54m
First Quarter, 52% of the Moon is Illuminated
Sep 2
First Quarter
Sep 8
Full
Sep 15
Last Quarter
Sep 24
New
Oct 1
First Quarter

Hourly Weather History & Observations

Time (EDT) Temp. Heat Index Dew Point Humidity Pressure Visibility Wind Dir Wind Speed Gust Speed Precip Events Conditions
12:15 AM 69.8 °F - 69.8 °F 100% 30.10 in 7.0 mi Calm Calm - N/A   Scattered Clouds
12:35 AM 69.8 °F - 69.8 °F 100% 30.10 in 7.0 mi Calm Calm - N/A   Mostly Cloudy
12:55 AM 69.8 °F - 69.8 °F 100% 30.09 in 7.0 mi Calm Calm - N/A   Mostly Cloudy
1:15 AM 69.8 °F - 69.4 °F 99% 30.09 in 7.0 mi Calm Calm - N/A   Clear
1:35 AM 69.1 °F - 69.1 °F 100% 30.09 in 7.0 mi Calm Calm - N/A   Clear
1:55 AM 68.2 °F - 68.2 °F 100% 30.09 in 5.0 mi Calm Calm - N/A   Clear
2:15 AM 68.5 °F - 68.5 °F 100% 30.08 in 7.0 mi Calm Calm - N/A   Clear
2:35 AM 68.4 °F - 68.4 °F 100% 30.08 in 7.0 mi Calm Calm - N/A   Clear
2:55 AM 68.2 °F - 68.2 °F 100% 30.08 in 5.0 mi Calm Calm - N/A   Clear
3:15 AM 68.0 °F - 68.0 °F 100% 30.07 in 5.0 mi Calm Calm - N/A   Scattered Clouds
3:35 AM 68.0 °F - 68.0 °F 100% 30.07 in 4.0 mi Calm Calm - N/A   Mostly Cloudy
3:55 AM 67.6 °F - 67.6 °F 100% 30.08 in 7.0 mi NW 3.5 mph - N/A   Scattered Clouds
4:15 AM 67.8 °F - 67.8 °F 100% 30.08 in 7.0 mi Calm Calm - N/A   Mostly Cloudy
4:35 AM 67.1 °F - 67.1 °F 100% 30.08 in 5.0 mi Calm Calm - N/A   Scattered Clouds
4:55 AM 66.4 °F - 66.4 °F 100% 30.08 in 5.0 mi Calm Calm - N/A   Clear
5:15 AM 66.2 °F - 66.2 °F 100% 30.09 in 1.5 mi Calm Calm - N/A   Mist
5:35 AM 66.2 °F - 66.2 °F 100% 30.09 in 4.0 mi Calm Calm - N/A   Mostly Cloudy
5:55 AM 66.2 °F - 66.2 °F 100% 30.09 in 7.0 mi Calm Calm - N/A   Mostly Cloudy
6:15 AM 66.2 °F - 66.2 °F 100% 30.10 in 5.0 mi Calm Calm - N/A   Scattered Clouds
6:35 AM 65.8 °F - 65.8 °F 100% 30.10 in 2.0 mi Calm Calm - N/A   Clear
6:55 AM 65.7 °F - 65.7 °F 100% 30.10 in 5.0 mi Calm Calm - N/A   Clear
7:15 AM 64.8 °F - 64.8 °F 100% 30.10 in 3.0 mi Calm Calm - N/A   Clear
7:35 AM 66.2 °F - 66.2 °F 100% 30.11 in 4.0 mi Calm Calm - N/A   Clear
7:55 AM 68.0 °F - 68.0 °F 100% 30.11 in 7.0 mi Calm Calm - N/A   Clear
8:15 AM 70.3 °F - 69.6 °F 98% 30.10 in 10.0 mi Calm Calm - N/A   Clear
8:35 AM 72.7 °F - 70.5 °F 93% 30.11 in 10.0 mi Calm Calm - N/A   Clear
8:55 AM 75.6 °F - 71.6 °F 87% 30.11 in 10.0 mi Calm Calm - N/A   Clear
9:15 AM 78.3 °F - 70.0 °F 76% 30.11 in 10.0 mi Calm Calm - N/A   Clear
9:35 AM 80.4 °F 83.9 °F 70.7 °F 72% 30.11 in 10.0 mi Calm Calm - N/A   Clear
9:55 AM 83.1 °F 87.6 °F 70.7 °F 66% 30.11 in 10.0 mi Calm Calm - N/A   Clear
10:15 AM 84.6 °F 89.1 °F 70.2 °F 62% 30.11 in 10.0 mi SW 5.8 mph - N/A   Clear
10:35 AM 86.4 °F 91.8 °F 70.9 °F 60% 30.11 in 10.0 mi SW 3.5 mph - N/A   Clear
10:55 AM 86.4 °F 90.4 °F 69.1 °F 56% 30.10 in 10.0 mi SW 5.8 mph - N/A   Clear
11:15 AM 86.9 °F 91.0 °F 69.1 °F 55% 30.10 in 10.0 mi SSW 6.9 mph - N/A   Clear
11:35 AM 88.7 °F 93.9 °F 70.3 °F 54% 30.10 in 10.0 mi SW 8.1 mph - N/A   Clear
11:55 AM 88.9 °F 93.8 °F 69.6 °F 53% 30.09 in 10.0 mi WSW 6.9 mph - N/A   Clear
12:35 PM 90.7 °F 96.4 °F 70.3 °F 51% 30.09 in 10.0 mi SW 5.8 mph - N/A   Clear
12:55 PM 89.8 °F 95.1 °F 69.8 °F 52% 30.08 in 10.0 mi SSW 4.6 mph - N/A   Clear
1:15 PM 91.2 °F 97.0 °F 70.3 °F 50% 30.07 in 10.0 mi SSW 3.5 mph - N/A   Clear
2:15 PM 92.3 °F 97.6 °F 69.6 °F 47% 30.07 in 10.0 mi WNW 4.6 mph - N/A   Clear
2:35 PM 91.2 °F 96.5 °F 69.6 °F 49% 30.05 in 10.0 mi SSW 3.5 mph - N/A   Scattered Clouds
2:55 PM 90.7 °F 95.9 °F 70.0 °F 50% 30.04 in 10.0 mi South 3.5 mph - N/A   Clear
3:15 PM 92.8 °F 98.1 °F 69.3 °F 46% 30.03 in 10.0 mi South 3.5 mph - N/A   Scattered Clouds
3:35 PM 90.7 °F 96.4 °F 70.5 °F 51% 30.03 in 10.0 mi WSW 4.6 mph - N/A   Scattered Clouds
3:55 PM 91.6 °F 98.8 °F 71.4 °F 52% 30.02 in 10.0 mi WNW 4.6 mph - N/A   Scattered Clouds
4:35 PM 85.8 °F 91.8 °F 72.1 °F 63% 30.00 in 10.0 mi Calm Calm - N/A Rain Light Rain
4:55 PM 83.8 °F 89.5 °F 72.3 °F 68% 30.00 in 10.0 mi Calm Calm - N/A   Mostly Cloudy
5:15 PM 81.7 °F 86.9 °F 73.2 °F 75% 30.00 in 10.0 mi Calm Calm - N/A   Scattered Clouds
5:35 PM 84.0 °F 90.2 °F 72.7 °F 69% 30.00 in 10.0 mi West 3.5 mph - N/A   Scattered Clouds
5:55 PM 86.0 °F 92.6 °F 72.7 °F 64% 29.98 in 10.0 mi Calm Calm - N/A   Clear
6:15 PM 86.0 °F 92.6 °F 72.3 °F 64% 29.98 in 10.0 mi West 4.6 mph - N/A   Clear
6:35 PM 83.5 °F 89.4 °F 72.9 °F 70% 29.98 in 10.0 mi Calm Calm - N/A   Clear
6:55 PM 83.7 °F 89.4 °F 72.7 °F 69% 29.98 in 10.0 mi Calm Calm - N/A   Clear
7:15 PM 81.5 °F 86.5 °F 72.9 °F 75% 29.99 in 10.0 mi Calm Calm - N/A   Clear
7:35 PM 79.2 °F - 72.7 °F 80% 30.00 in 10.0 mi Calm Calm - N/A   Clear
7:55 PM 77.4 °F - 73.4 °F 88% 30.01 in 10.0 mi Calm Calm - N/A   Clear
8:15 PM 77.5 °F - 73.4 °F 87% 30.01 in 10.0 mi Calm Calm - N/A   Clear
8:35 PM 76.8 °F - 73.4 °F 89% 30.01 in 10.0 mi Calm Calm - N/A   Clear
8:55 PM 76.6 °F - 73.8 °F 91% 30.02 in 10.0 mi SW 3.5 mph - N/A   Clear
9:15 PM 77.2 °F - 73.2 °F 88% 30.03 in 10.0 mi SSW 3.5 mph - N/A   Scattered Clouds
9:35 PM 77.5 °F - 73.2 °F 86% 30.03 in 10.0 mi SSW 3.5 mph - N/A   Scattered Clouds
9:55 PM 77.0 °F - 73.0 °F 88% 30.04 in 10.0 mi SW 3.5 mph - N/A   Scattered Clouds
10:15 PM 77.5 °F - 72.0 °F 83% 30.03 in 10.0 mi SW 4.6 mph - N/A   Clear
10:35 PM 77.4 °F - 71.6 °F 82% 30.04 in 10.0 mi SW 3.5 mph - N/A   Clear
10:55 PM 76.8 °F - 70.9 °F 82% 30.04 in 10.0 mi SW 3.5 mph - N/A   Clear
11:15 PM 76.6 °F - 72.5 °F 87% 30.05 in 10.0 mi West 4.6 mph - N/A Thunderstorm Clear
11:35 PM 75.6 °F - 73.0 °F 92% 30.06 in 10.0 mi West 5.8 mph - N/A   Scattered Clouds